Location: Stoke Bliss
(52.2667°N, 2.5167°W)
Time: 12:27:39
(UTC+00:00)

Envisat - Pass Details

Date: 04 December 2021
Orbit: 764 x 766 km, 98.2° (Epoch: 23 January)

Event Time Altitude Azimuth Distance (km) Brightness Sun altitude
Rises 03:50:48 0° 27° (NNE) 3,247 6.7 -37.1°
Reaches altitude 10° 03:54:01 10° 48° (NE) 2,314 6.1 -36.6°
Maximum altitude 03:57:10 16° 86° (E) 1,907 5.7 -36.1°
Drops below altitude 10° 04:00:18 10° 125° (SE) 2,302 5.9 -35.6°
Sets 04:03:29 0° 146° (SE) 3,222 6.5 -35.2°
